Year,Month,Day,Hour,Minute,Value (Times are PST for temperature in C)
2018,08,22,00,00,16.80
2018,08,22,00,01,16.80
2018,08,22,00,02,16.80
2018,08,22,00,03,16.70
2018,08,22,00,04,16.70
2018,08,22,00,05,16.70
2018,08,22,00,06,16.70
2018,08,22,00,07,16.60
2018,08,22,00,08,16.60
2018,08,22,00,09,16.60
2018,08,22,00,10,16.50
2018,08,22,00,11,16.50
2018,08,22,00,12,16.40
2018,08,22,00,13,16.40
2018,08,22,00,14,16.40
2018,08,22,00,15,16.30
2018,08,22,00,16,16.30
2018,08,22,00,17,16.30
2018,08,22,00,18,16.20
2018,08,22,00,19,16.20
2018,08,22,00,20,16.10
2018,08,22,00,21,16.00
2018,08,22,00,22,16.00
2018,08,22,00,23,15.90
2018,08,22,00,24,15.90
2018,08,22,00,25,15.80
2018,08,22,00,26,15.80
2018,08,22,00,27,15.70
2018,08,22,00,28,15.70
2018,08,22,00,29,15.70
2018,08,22,00,30,15.60
2018,08,22,00,31,15.60
2018,08,22,00,32,15.50
2018,08,22,00,33,15.50
2018,08,22,00,34,15.50
2018,08,22,00,35,15.40
2018,08,22,00,36,15.40
2018,08,22,00,37,15.40
2018,08,22,00,38,15.30
2018,08,22,00,39,15.30
2018,08,22,00,40,15.30
2018,08,22,00,41,15.30
2018,08,22,00,42,15.30
2018,08,22,00,43,15.20
2018,08,22,00,44,15.20
2018,08,22,00,45,15.20
2018,08,22,00,46,15.20
2018,08,22,00,47,15.20
2018,08,22,00,48,15.20
2018,08,22,00,49,15.20
2018,08,22,00,50,15.20
2018,08,22,00,51,15.20
2018,08,22,00,52,15.20
2018,08,22,00,53,15.20
2018,08,22,00,54,15.20
2018,08,22,00,55,15.20
2018,08,22,00,56,15.20
2018,08,22,00,57,15.10
2018,08,22,00,58,15.10
2018,08,22,00,59,15.10
2018,08,22,01,00,15.10
2018,08,22,01,01,15.10
2018,08,22,01,02,15.10
2018,08,22,01,03,15.10
2018,08,22,01,04,15.00
2018,08,22,01,05,15.00
2018,08,22,01,06,15.00
2018,08,22,01,07,15.00
2018,08,22,01,08,15.00
2018,08,22,01,09,15.00
2018,08,22,01,10,15.00
2018,08,22,01,11,15.00
2018,08,22,01,12,15.00
2018,08,22,01,13,15.00
2018,08,22,01,14,15.00
2018,08,22,01,15,15.00
2018,08,22,01,16,15.00
2018,08,22,01,17,15.00
2018,08,22,01,18,15.00
2018,08,22,01,19,15.00
2018,08,22,01,20,15.00
2018,08,22,01,21,15.00
2018,08,22,01,22,15.00
2018,08,22,01,23,15.00
2018,08,22,01,24,15.00
2018,08,22,01,25,15.00
2018,08,22,01,26,15.00
2018,08,22,01,27,15.10
2018,08,22,01,28,15.10
2018,08,22,01,29,15.10
2018,08,22,01,30,15.10
2018,08,22,01,31,15.20
2018,08,22,01,32,15.20
2018,08,22,01,33,15.20
2018,08,22,01,34,15.20
2018,08,22,01,35,15.20
2018,08,22,01,36,15.30
2018,08,22,01,37,15.30
2018,08,22,01,38,15.30
2018,08,22,01,39,15.30
2018,08,22,01,40,15.30
2018,08,22,01,41,15.30
2018,08,22,01,42,15.30
2018,08,22,01,43,15.30
2018,08,22,01,44,15.30
2018,08,22,01,45,15.30
2018,08,22,01,46,15.30
2018,08,22,01,47,15.30
2018,08,22,01,48,15.30
2018,08,22,01,49,15.20
2018,08,22,01,50,15.20
2018,08,22,01,51,15.20
2018,08,22,01,52,15.20
2018,08,22,01,53,15.20
2018,08,22,01,54,15.10
2018,08,22,01,55,15.10
2018,08,22,01,56,15.10
2018,08,22,01,57,15.10
2018,08,22,01,58,15.00
2018,08,22,01,59,15.00
2018,08,22,02,00,15.00
2018,08,22,02,01,15.00
2018,08,22,02,02,15.00
2018,08,22,02,03,14.90
2018,08,22,02,04,14.90
2018,08,22,02,05,14.90
2018,08,22,02,06,14.90
2018,08,22,02,07,14.90
2018,08,22,02,08,14.90
2018,08,22,02,09,14.90
2018,08,22,02,10,14.90
2018,08,22,02,11,14.90
2018,08,22,02,12,14.90
2018,08,22,02,13,14.90
2018,08,22,02,14,14.90
2018,08,22,02,15,14.90
2018,08,22,02,16,14.90
2018,08,22,02,17,14.90
2018,08,22,02,18,14.90
2018,08,22,02,19,14.90
2018,08,22,02,20,14.90
2018,08,22,02,21,14.90
2018,08,22,02,22,14.90
2018,08,22,02,23,14.90
2018,08,22,02,24,14.90
2018,08,22,02,25,14.90
2018,08,22,02,26,14.80
2018,08,22,02,27,14.80
2018,08,22,02,28,14.70
2018,08,22,02,29,14.60
2018,08,22,02,30,14.60
2018,08,22,02,31,14.50
2018,08,22,02,32,14.50
2018,08,22,02,33,14.40
2018,08,22,02,34,14.40
2018,08,22,02,35,14.30
2018,08,22,02,36,14.30
2018,08,22,02,37,14.30
2018,08,22,02,38,14.20
2018,08,22,02,39,14.20
2018,08,22,02,40,14.20
2018,08,22,02,41,14.10
2018,08,22,02,42,14.10
2018,08,22,02,43,14.10
2018,08,22,02,44,14.10
2018,08,22,02,45,14.10
2018,08,22,02,46,14.00
2018,08,22,02,47,14.00
2018,08,22,02,48,14.00
2018,08,22,02,49,14.00
2018,08,22,02,50,14.00
2018,08,22,02,51,13.90
2018,08,22,02,52,13.90
2018,08,22,02,53,13.90
2018,08,22,02,54,13.90
2018,08,22,02,55,13.80
2018,08,22,02,56,13.80
2018,08,22,02,57,13.80
2018,08,22,02,58,13.80
2018,08,22,02,59,13.80
2018,08,22,03,00,13.80
2018,08,22,03,01,13.80
2018,08,22,03,02,13.70
2018,08,22,03,03,13.80
2018,08,22,03,04,13.80
2018,08,22,03,05,13.80
2018,08,22,03,06,13.80
2018,08,22,03,07,13.80
2018,08,22,03,08,13.80
2018,08,22,03,09,13.80
2018,08,22,03,10,13.90
2018,08,22,03,11,13.90
2018,08,22,03,12,13.90
2018,08,22,03,13,13.90
2018,08,22,03,14,13.90
2018,08,22,03,15,13.90
2018,08,22,03,16,13.90
2018,08,22,03,17,13.90
2018,08,22,03,18,13.90
2018,08,22,03,19,13.90
2018,08,22,03,20,13.90
2018,08,22,03,21,13.90
2018,08,22,03,22,13.90
2018,08,22,03,23,14.00
2018,08,22,03,24,14.00
2018,08,22,03,25,14.00
2018,08,22,03,26,14.00
2018,08,22,03,27,13.90
2018,08,22,03,28,13.80
2018,08,22,03,29,13.60
2018,08,22,03,30,13.50
2018,08,22,03,31,13.40
2018,08,22,03,32,13.30
2018,08,22,03,33,13.30
2018,08,22,03,34,13.20
2018,08,22,03,35,13.20
2018,08,22,03,36,13.20
2018,08,22,03,37,13.20
2018,08,22,03,38,13.20
2018,08,22,03,39,13.20
2018,08,22,03,40,13.10
2018,08,22,03,41,13.10
2018,08,22,03,42,13.10
2018,08,22,03,43,13.10
2018,08,22,03,44,13.10
2018,08,22,03,45,13.10
2018,08,22,03,46,13.10
2018,08,22,03,47,13.20
2018,08,22,03,48,13.20
2018,08,22,03,49,13.20
2018,08,22,03,50,13.20
2018,08,22,03,51,13.20
2018,08,22,03,52,13.20
2018,08,22,03,53,13.20
2018,08,22,03,54,13.20
2018,08,22,03,55,13.20
2018,08,22,03,56,13.20
2018,08,22,03,57,13.20
2018,08,22,03,58,13.20
2018,08,22,03,59,13.20
2018,08,22,04,00,13.20
2018,08,22,04,01,13.20
2018,08,22,04,02,13.20
2018,08,22,04,03,13.20
2018,08,22,04,04,13.20
2018,08,22,04,05,13.20
2018,08,22,04,06,13.20
2018,08,22,04,07,13.20
2018,08,22,04,08,13.20
2018,08,22,04,09,13.20
2018,08,22,04,10,13.20
2018,08,22,04,11,13.20
2018,08,22,04,12,13.20
2018,08,22,04,13,13.20
2018,08,22,04,14,13.10
2018,08,22,04,15,13.00
2018,08,22,04,16,13.00
2018,08,22,04,17,12.90
2018,08,22,04,18,12.80
2018,08,22,04,19,12.80
2018,08,22,04,20,12.70
2018,08,22,04,21,12.60
2018,08,22,04,22,12.50
2018,08,22,04,23,12.50
2018,08,22,04,24,12.40
2018,08,22,04,25,12.40
2018,08,22,04,26,12.30
2018,08,22,04,27,12.30
2018,08,22,04,28,12.30
2018,08,22,04,29,12.20
2018,08,22,04,30,12.20
2018,08,22,04,31,12.20
2018,08,22,04,32,12.20
2018,08,22,04,33,12.20
2018,08,22,04,34,12.10
2018,08,22,04,35,12.10
2018,08,22,04,36,12.10
2018,08,22,04,37,12.10
2018,08,22,04,38,12.10
2018,08,22,04,39,12.10
2018,08,22,04,40,12.10
2018,08,22,04,41,12.10
2018,08,22,04,42,12.10
2018,08,22,04,43,12.10
2018,08,22,04,44,12.10
2018,08,22,04,45,12.10
2018,08,22,04,46,12.10
2018,08,22,04,47,12.10
2018,08,22,04,48,12.10
2018,08,22,04,49,12.10
2018,08,22,04,50,12.10
2018,08,22,04,51,12.10
2018,08,22,04,52,12.10
2018,08,22,04,53,12.10
2018,08,22,04,54,12.10
2018,08,22,04,55,12.10
2018,08,22,04,56,12.10
2018,08,22,04,57,12.10
2018,08,22,04,58,12.10
2018,08,22,04,59,12.10
2018,08,22,05,00,12.10
2018,08,22,05,01,12.10
2018,08,22,05,02,12.20
2018,08,22,05,03,12.20
2018,08,22,05,04,12.20
2018,08,22,05,05,12.20
2018,08,22,05,06,12.30
2018,08,22,05,07,12.30
2018,08,22,05,08,12.30
2018,08,22,05,09,12.30
2018,08,22,05,10,12.30
2018,08,22,05,11,12.40
2018,08,22,05,12,12.40
2018,08,22,05,13,12.40
2018,08,22,05,14,12.50
2018,08,22,05,15,12.50
2018,08,22,05,16,12.60
2018,08,22,05,17,12.60
2018,08,22,05,18,12.60
2018,08,22,05,19,12.60
2018,08,22,05,20,12.60
2018,08,22,05,21,12.70
2018,08,22,05,22,12.70
2018,08,22,05,23,12.70
2018,08,22,05,24,12.70
2018,08,22,05,25,12.70
2018,08,22,05,26,12.60
2018,08,22,05,27,12.70
2018,08,22,05,28,12.70
2018,08,22,05,29,12.70
2018,08,22,05,30,12.60
2018,08,22,05,31,12.60
2018,08,22,05,32,12.60
2018,08,22,05,33,12.50
2018,08,22,05,34,12.40
2018,08,22,05,35,12.40
2018,08,22,05,36,12.40
2018,08,22,05,37,12.30
2018,08,22,05,38,12.30
2018,08,22,05,39,12.30
2018,08,22,05,40,12.30
2018,08,22,05,41,12.30
2018,08,22,05,42,12.30
2018,08,22,05,43,12.30
2018,08,22,05,44,12.30
2018,08,22,05,45,12.20
2018,08,22,05,46,12.20
2018,08,22,05,47,12.20
2018,08,22,05,48,12.20
2018,08,22,05,49,12.10
2018,08,22,05,50,12.10
2018,08,22,05,51,12.10
2018,08,22,05,52,12.10
2018,08,22,05,53,12.10
2018,08,22,05,54,12.00
2018,08,22,05,55,12.00
2018,08,22,05,56,12.00
2018,08,22,05,57,12.00
2018,08,22,05,58,11.90
2018,08,22,05,59,11.90
2018,08,22,06,00,11.90
2018,08,22,06,01,12.00
2018,08,22,06,02,12.00
2018,08,22,06,03,12.00
2018,08,22,06,04,12.00
2018,08,22,06,05,12.10
2018,08,22,06,06,12.10
2018,08,22,06,07,12.10
2018,08,22,06,08,12.10
2018,08,22,06,09,12.20
2018,08,22,06,10,12.20
2018,08,22,06,11,12.20
2018,08,22,06,12,12.20
2018,08,22,06,13,12.20
2018,08,22,06,14,12.30
2018,08,22,06,15,12.30
2018,08,22,06,16,12.30
2018,08,22,06,17,12.30
2018,08,22,06,18,12.30
2018,08,22,06,19,12.30
2018,08,22,06,20,12.40
2018,08,22,06,21,12.40
2018,08,22,06,22,12.40
2018,08,22,06,23,12.40
2018,08,22,06,24,12.50
2018,08,22,06,25,12.50
2018,08,22,06,26,12.60
2018,08,22,06,27,12.60
2018,08,22,06,28,12.70
2018,08,22,06,29,12.70
2018,08,22,06,30,12.80
2018,08,22,06,31,12.80
2018,08,22,06,32,12.80
2018,08,22,06,33,12.80
2018,08,22,06,34,12.80
2018,08,22,06,35,12.80
2018,08,22,06,36,12.90
2018,08,22,06,37,12.90
2018,08,22,06,38,12.90
2018,08,22,06,39,12.90
2018,08,22,06,40,12.90
2018,08,22,06,41,12.90
2018,08,22,06,42,12.90
2018,08,22,06,43,12.90
2018,08,22,06,44,12.90
2018,08,22,06,45,13.00
2018,08,22,06,46,13.00
2018,08,22,06,47,13.00
2018,08,22,06,48,13.10
2018,08,22,06,49,13.10
2018,08,22,06,50,13.10
2018,08,22,06,51,13.10
2018,08,22,06,52,13.20
2018,08,22,06,53,13.20
2018,08,22,06,54,13.20
2018,08,22,06,55,13.20
2018,08,22,06,56,13.20
2018,08,22,06,57,13.20
2018,08,22,06,58,13.20
2018,08,22,06,59,13.20
2018,08,22,07,00,13.20
2018,08,22,07,01,13.20
2018,08,22,07,02,13.20
2018,08,22,07,03,13.20
2018,08,22,07,04,13.30
2018,08,22,07,05,13.30
2018,08,22,07,06,13.30
2018,08,22,07,07,13.30
2018,08,22,07,08,13.30
2018,08,22,07,09,13.30
2018,08,22,07,10,13.30
2018,08,22,07,11,13.30
2018,08,22,07,12,13.30
2018,08,22,07,13,13.30
2018,08,22,07,14,13.30
2018,08,22,07,15,13.30
2018,08,22,07,16,13.30
2018,08,22,07,17,13.40
2018,08,22,07,18,13.40
2018,08,22,07,19,13.40
2018,08,22,07,20,13.50
2018,08,22,07,21,13.50
2018,08,22,07,22,13.60
2018,08,22,07,23,13.60
2018,08,22,07,24,13.60
2018,08,22,07,25,13.60
2018,08,22,07,26,13.70
2018,08,22,07,27,13.70
2018,08,22,07,28,13.80
2018,08,22,07,29,13.80
2018,08,22,07,30,13.80
2018,08,22,07,31,13.90
2018,08,22,07,32,13.90
2018,08,22,07,33,13.90
2018,08,22,07,34,14.00
2018,08,22,07,35,14.00
2018,08,22,07,36,14.10
2018,08,22,07,37,14.10
2018,08,22,07,38,14.20
2018,08,22,07,39,14.20
2018,08,22,07,40,14.30
2018,08,22,07,41,14.30
2018,08,22,07,42,14.40
2018,08,22,07,43,14.40
2018,08,22,07,44,14.50
2018,08,22,07,45,14.60
2018,08,22,07,46,14.60
2018,08,22,07,47,14.70
2018,08,22,07,48,14.80
2018,08,22,07,49,14.90
2018,08,22,07,50,14.90
2018,08,22,07,51,15.00
2018,08,22,07,52,15.10
2018,08,22,07,53,15.20
2018,08,22,07,54,15.20
2018,08,22,07,55,15.40
2018,08,22,07,56,15.50
2018,08,22,07,57,15.60
2018,08,22,07,58,15.70
2018,08,22,07,59,15.80
2018,08,22,08,00,15.90
2018,08,22,08,01,16.00
2018,08,22,08,02,16.10
2018,08,22,08,03,16.20
2018,08,22,08,04,16.30
2018,08,22,08,05,16.30
2018,08,22,08,06,16.40
2018,08,22,08,07,16.50
2018,08,22,08,08,16.50
2018,08,22,08,09,16.60
2018,08,22,08,10,16.70
2018,08,22,08,11,16.80
2018,08,22,08,12,16.80
2018,08,22,08,13,16.90
2018,08,22,08,14,16.90
2018,08,22,08,15,17.00
2018,08,22,08,16,17.00
2018,08,22,08,17,17.10
2018,08,22,08,18,17.10
2018,08,22,08,19,17.20
2018,08,22,08,20,17.20
2018,08,22,08,21,17.30
2018,08,22,08,22,17.30
2018,08,22,08,23,17.40
2018,08,22,08,24,17.40
2018,08,22,08,25,17.50
2018,08,22,08,26,17.50
2018,08,22,08,27,17.60
2018,08,22,08,28,17.60
2018,08,22,08,29,17.70
2018,08,22,08,30,17.70
2018,08,22,08,31,17.70
2018,08,22,08,32,17.70
2018,08,22,08,33,17.70
2018,08,22,08,34,17.80
2018,08,22,08,35,17.80
2018,08,22,08,36,17.80
2018,08,22,08,37,17.80
2018,08,22,08,38,17.80
2018,08,22,08,39,17.90
2018,08,22,08,40,18.00
2018,08,22,08,41,18.00
2018,08,22,08,42,18.10
2018,08,22,08,43,18.10
2018,08,22,08,44,18.20
2018,08,22,08,45,18.20
2018,08,22,08,46,18.30
2018,08,22,08,47,18.40
2018,08,22,08,48,18.50
2018,08,22,08,49,18.60
2018,08,22,08,50,18.60
2018,08,22,08,51,18.70
2018,08,22,08,52,18.70
2018,08,22,08,53,18.80
2018,08,22,08,54,18.90
2018,08,22,08,55,18.90
2018,08,22,08,56,19.00
2018,08,22,08,57,19.10
2018,08,22,08,58,19.10
2018,08,22,08,59,19.20
2018,08,22,09,00,19.30
2018,08,22,09,01,19.30
2018,08,22,09,02,19.40
2018,08,22,09,03,19.50
2018,08,22,09,04,19.60
2018,08,22,09,05,19.70
2018,08,22,09,06,19.70
2018,08,22,09,07,19.80
2018,08,22,09,08,19.80
2018,08,22,09,09,19.90
2018,08,22,09,10,20.00
2018,08,22,09,11,20.10
2018,08,22,09,12,20.10
2018,08,22,09,13,20.20
2018,08,22,09,14,20.20
2018,08,22,09,15,20.30
2018,08,22,09,16,20.30
2018,08,22,09,17,20.40
2018,08,22,09,18,20.40
2018,08,22,09,19,20.50
2018,08,22,09,20,20.50
2018,08,22,09,21,20.60
2018,08,22,09,22,20.60
2018,08,22,09,23,20.60
2018,08,22,09,24,20.60
2018,08,22,09,25,20.50
2018,08,22,09,26,20.50
2018,08,22,09,27,20.40
2018,08,22,09,28,20.40
2018,08,22,09,29,20.40
2018,08,22,09,30,20.30
2018,08,22,09,31,20.30
2018,08,22,09,32,20.30
2018,08,22,09,33,20.30
2018,08,22,09,34,20.20
2018,08,22,09,35,20.20
2018,08,22,09,36,20.20
2018,08,22,09,37,20.20
2018,08,22,09,38,20.20
2018,08,22,09,39,20.20
2018,08,22,09,40,20.20
2018,08,22,09,41,20.20
2018,08,22,09,42,20.10
2018,08,22,09,43,20.10
2018,08,22,09,44,20.10
2018,08,22,09,45,20.10
2018,08,22,09,46,20.10
2018,08,22,09,47,20.10
2018,08,22,09,48,20.10
2018,08,22,09,49,20.20
2018,08,22,09,50,20.20
2018,08,22,09,51,20.20
2018,08,22,09,52,20.20
2018,08,22,09,53,20.20
2018,08,22,09,54,20.20
2018,08,22,09,55,20.20
2018,08,22,09,56,20.20
2018,08,22,09,57,20.30
2018,08,22,09,58,20.30
2018,08,22,09,59,20.30
2018,08,22,10,00,20.40
2018,08,22,10,01,20.40
2018,08,22,10,02,20.40
2018,08,22,10,03,20.40
2018,08,22,10,04,20.40
2018,08,22,10,05,20.50
2018,08,22,10,06,20.50
2018,08,22,10,07,20.50
2018,08,22,10,08,20.60
2018,08,22,10,09,20.70
2018,08,22,10,10,20.70
2018,08,22,10,11,20.80
2018,08,22,10,12,20.90
2018,08,22,10,13,21.00
2018,08,22,10,14,21.10
2018,08,22,10,15,21.20
2018,08,22,10,16,21.30
2018,08,22,10,17,21.40
2018,08,22,10,18,21.50
2018,08,22,10,19,21.60
2018,08,22,10,20,21.70
2018,08,22,10,21,21.80
2018,08,22,10,22,21.80
2018,08,22,10,23,21.90
2018,08,22,10,24,21.90
2018,08,22,10,25,22.00
2018,08,22,10,26,22.00
2018,08,22,10,27,22.10
2018,08,22,10,28,22.10
2018,08,22,10,29,22.20
2018,08,22,10,30,22.20
2018,08,22,10,31,22.20
2018,08,22,10,32,22.30
2018,08,22,10,33,22.30
2018,08,22,10,34,22.20
2018,08,22,10,35,22.20
2018,08,22,10,36,22.20
2018,08,22,10,37,22.20
2018,08,22,10,38,22.20
2018,08,22,10,39,22.20
2018,08,22,10,40,22.20
2018,08,22,10,41,22.20
2018,08,22,10,42,22.20
2018,08,22,10,43,22.20
2018,08,22,10,44,22.20
2018,08,22,10,45,22.20
2018,08,22,10,46,22.10
2018,08,22,10,47,22.10
2018,08,22,10,48,22.10
2018,08,22,10,49,22.10
2018,08,22,10,50,22.10
2018,08,22,10,51,22.10
2018,08,22,10,52,22.10
2018,08,22,10,53,22.00
2018,08,22,10,54,22.00
2018,08,22,10,55,22.10
2018,08,22,10,56,22.10
2018,08,22,10,57,22.10
2018,08,22,10,58,22.10
2018,08,22,10,59,22.10
2018,08,22,11,00,22.10
2018,08,22,11,01,22.20
2018,08,22,11,02,22.20
2018,08,22,11,03,22.20
2018,08,22,11,04,22.30
2018,08,22,11,05,22.30
2018,08,22,11,06,22.40
2018,08,22,11,07,22.40
2018,08,22,11,08,22.40
2018,08,22,11,09,22.40
2018,08,22,11,10,22.40
2018,08,22,11,11,22.40
2018,08,22,11,12,22.40
2018,08,22,11,13,22.40
2018,08,22,11,14,22.40
2018,08,22,11,15,22.40
2018,08,22,11,16,22.40
2018,08,22,11,17,22.50
2018,08,22,11,18,22.50
2018,08,22,11,19,22.60
2018,08,22,11,20,22.60
2018,08,22,11,21,22.60
2018,08,22,11,22,22.60
2018,08,22,11,23,22.60
2018,08,22,11,24,22.60
2018,08,22,11,25,22.60
2018,08,22,11,26,22.60
2018,08,22,11,27,22.70
2018,08,22,11,28,22.80
2018,08,22,11,29,22.90
2018,08,22,11,30,22.90
2018,08,22,11,31,22.90
2018,08,22,11,32,22.90
2018,08,22,11,33,23.00
2018,08,22,11,34,22.90
2018,08,22,11,35,22.90
2018,08,22,11,36,22.80
2018,08,22,11,37,22.70
2018,08,22,11,38,22.70
2018,08,22,11,39,22.70
2018,08,22,11,40,22.80
2018,08,22,11,41,22.80
2018,08,22,11,42,22.90
2018,08,22,11,43,23.00
2018,08,22,11,44,23.00
2018,08,22,11,45,23.10
2018,08,22,11,46,23.10
2018,08,22,11,47,23.20
2018,08,22,11,48,23.20
2018,08,22,11,49,23.30
2018,08,22,11,50,23.30
2018,08,22,11,51,23.30
2018,08,22,11,52,23.40
2018,08,22,11,53,23.50
2018,08,22,11,54,23.50
2018,08,22,11,55,23.60
2018,08,22,11,56,23.60
2018,08,22,11,57,23.60
2018,08,22,11,58,23.50
2018,08,22,11,59,23.50
2018,08,22,12,00,23.40
2018,08,22,12,01,23.40
2018,08,22,12,02,23.30
2018,08,22,12,03,23.30
2018,08,22,12,04,23.30
2018,08,22,12,05,23.20
2018,08,22,12,06,23.20
2018,08,22,12,07,23.20
2018,08,22,12,08,23.20
2018,08,22,12,09,23.30
2018,08,22,12,10,23.40
2018,08,22,12,11,23.40
2018,08,22,12,12,23.50
2018,08,22,12,13,23.50
2018,08,22,12,14,23.50
2018,08,22,12,15,23.50
2018,08,22,12,16,23.60
2018,08,22,12,17,23.60
2018,08,22,12,18,23.60
2018,08,22,12,19,23.70
2018,08,22,12,20,23.70
2018,08,22,12,21,23.80
2018,08,22,12,22,23.80
2018,08,22,12,23,23.90
2018,08,22,12,24,24.00
2018,08,22,12,25,24.00
2018,08,22,12,26,24.10
2018,08,22,12,27,24.20
2018,08,22,12,28,24.20
2018,08,22,12,29,24.20
2018,08,22,12,30,24.30
2018,08,22,12,31,24.30
2018,08,22,12,32,24.40
2018,08,22,12,33,24.50
2018,08,22,12,34,24.50
2018,08,22,12,35,24.50
2018,08,22,12,36,24.50
2018,08,22,12,37,24.50
2018,08,22,12,38,24.50
2018,08,22,12,39,24.50
2018,08,22,12,40,24.40
2018,08,22,12,41,24.40
2018,08,22,12,42,24.50
2018,08,22,12,43,24.50
2018,08,22,12,44,24.50
2018,08,22,12,45,24.50
2018,08,22,12,46,24.50
2018,08,22,12,47,24.60
2018,08,22,12,48,24.60
2018,08,22,12,49,24.60
2018,08,22,12,50,24.70
2018,08,22,12,51,24.70
2018,08,22,12,52,24.70
2018,08,22,12,53,24.80
2018,08,22,12,54,24.80
2018,08,22,12,55,24.80
2018,08,22,12,56,24.90
2018,08,22,12,57,25.00
2018,08,22,12,58,25.10
2018,08,22,12,59,25.20
2018,08,22,13,00,25.30
2018,08,22,13,01,25.40
2018,08,22,13,02,25.40
2018,08,22,13,03,25.50
2018,08,22,13,04,25.50
2018,08,22,13,05,25.50
2018,08,22,13,06,25.50
2018,08,22,13,07,25.50
2018,08,22,13,08,25.50
2018,08,22,13,09,25.60
2018,08,22,13,10,25.60
2018,08,22,13,11,25.60
2018,08,22,13,12,25.70
2018,08,22,13,13,25.70
2018,08,22,13,14,25.80
2018,08,22,13,15,25.80
2018,08,22,13,16,26.00
2018,08,22,13,17,26.10
2018,08,22,13,18,26.20
2018,08,22,13,19,26.40
2018,08,22,13,20,26.50
2018,08,22,13,21,26.60
2018,08,22,13,22,26.70
2018,08,22,13,23,26.70
2018,08,22,13,24,26.70
2018,08,22,13,25,26.70
2018,08,22,13,26,26.50
2018,08,22,13,27,26.40
2018,08,22,13,28,26.30
2018,08,22,13,29,26.20
2018,08,22,13,30,26.20
2018,08,22,13,31,26.10
2018,08,22,13,32,26.10
2018,08,22,13,33,26.10
2018,08,22,13,34,26.20
2018,08,22,13,35,26.30
2018,08,22,13,36,26.40
2018,08,22,13,37,26.40
2018,08,22,13,38,26.50
2018,08,22,13,39,26.60
2018,08,22,13,40,26.70
2018,08,22,13,41,26.70
2018,08,22,13,42,26.80
2018,08,22,13,43,26.80
2018,08,22,13,44,26.90
2018,08,22,13,45,26.90
2018,08,22,13,46,27.00
2018,08,22,13,47,27.00
2018,08,22,13,48,27.10
2018,08,22,13,49,27.00
2018,08,22,13,50,27.00
2018,08,22,13,51,26.90
2018,08,22,13,52,27.00
2018,08,22,13,53,27.00
2018,08,22,13,54,27.00
2018,08,22,13,55,27.00
2018,08,22,13,56,27.00
2018,08,22,13,57,27.00
2018,08,22,13,58,27.10
2018,08,22,13,59,27.10
2018,08,22,14,00,27.10
2018,08,22,14,01,27.20
2018,08,22,14,02,27.20
2018,08,22,14,03,27.30
2018,08,22,14,04,27.30
2018,08,22,14,05,27.30
2018,08,22,14,06,27.30
2018,08,22,14,07,27.30
2018,08,22,14,08,27.30
2018,08,22,14,09,27.40
2018,08,22,14,10,27.40
2018,08,22,14,11,27.40
2018,08,22,14,12,27.20
2018,08,22,14,13,27.10
2018,08,22,14,14,27.10
2018,08,22,14,15,27.00
2018,08,22,14,16,27.00
2018,08,22,14,17,27.00
2018,08,22,14,18,27.00
2018,08,22,14,19,27.10
2018,08,22,14,20,27.20
2018,08,22,14,21,27.20
2018,08,22,14,22,27.30
2018,08,22,14,23,27.30
2018,08,22,14,24,27.40
2018,08,22,14,25,27.40
2018,08,22,14,26,27.40
2018,08,22,14,27,27.40
2018,08,22,14,28,27.40
2018,08,22,14,29,27.30
2018,08,22,14,30,27.20
2018,08,22,14,31,27.20
2018,08,22,14,32,27.10
2018,08,22,14,33,27.10
2018,08,22,14,34,27.10
2018,08,22,14,35,27.10
2018,08,22,14,36,27.00
2018,08,22,14,37,27.00
2018,08,22,14,38,26.90
2018,08,22,14,39,26.90
2018,08,22,14,40,26.90
2018,08,22,14,41,26.90
2018,08,22,14,42,26.90
2018,08,22,14,43,27.00
2018,08,22,14,44,27.00
2018,08,22,14,45,27.10
2018,08,22,14,46,27.10
2018,08,22,14,47,27.10
2018,08,22,14,48,27.10
2018,08,22,14,49,27.10
2018,08,22,14,50,27.10
2018,08,22,14,51,27.10
2018,08,22,14,52,27.10
2018,08,22,14,53,27.10
2018,08,22,14,54,27.10
2018,08,22,14,55,27.10
2018,08,22,14,56,27.00
2018,08,22,14,57,27.00
2018,08,22,14,58,27.00
2018,08,22,14,59,27.00
2018,08,22,15,00,27.00
2018,08,22,15,01,27.10
2018,08,22,15,02,27.10
2018,08,22,15,03,27.10
2018,08,22,15,04,27.10
2018,08,22,15,05,27.00
2018,08,22,15,06,26.90
2018,08,22,15,07,26.90
2018,08,22,15,08,26.90
2018,08,22,15,09,26.90
2018,08,22,15,10,26.90
2018,08,22,15,11,26.90
2018,08,22,15,12,26.90
2018,08,22,15,13,26.90
2018,08,22,15,14,26.90
2018,08,22,15,15,26.90
2018,08,22,15,16,26.80
2018,08,22,15,17,26.80
2018,08,22,15,18,26.80
2018,08,22,15,19,26.80
2018,08,22,15,20,26.80
2018,08,22,15,21,26.90
2018,08,22,15,22,26.90
2018,08,22,15,23,27.00
2018,08,22,15,24,27.00
2018,08,22,15,25,27.00
2018,08,22,15,26,26.90
2018,08,22,15,27,26.90
2018,08,22,15,28,27.00
2018,08,22,15,29,27.00
2018,08,22,15,30,26.80
2018,08,22,15,31,26.70
2018,08,22,15,32,26.70
2018,08,22,15,33,26.70
2018,08,22,15,34,26.80
2018,08,22,15,35,26.80
2018,08,22,15,36,26.80
2018,08,22,15,37,26.70
2018,08,22,15,38,26.70
2018,08,22,15,39,26.70
2018,08,22,15,40,26.80
2018,08,22,15,41,26.80
2018,08,22,15,42,26.80
2018,08,22,15,43,26.80
2018,08,22,15,44,26.80
2018,08,22,15,45,26.90
2018,08,22,15,46,26.90
2018,08,22,15,47,26.90
2018,08,22,15,48,26.90
2018,08,22,15,49,26.90
2018,08,22,15,50,26.90
2018,08,22,15,51,26.90
2018,08,22,15,52,26.90
2018,08,22,15,53,26.90
2018,08,22,15,54,26.90
2018,08,22,15,55,26.90
2018,08,22,15,56,26.90
2018,08,22,15,57,27.00
2018,08,22,15,58,27.00
2018,08,22,15,59,27.00
2018,08,22,16,00,26.90
2018,08,22,16,01,26.80
2018,08,22,16,02,26.80
2018,08,22,16,03,26.80
2018,08,22,16,04,26.70
2018,08,22,16,05,26.70
2018,08,22,16,06,26.70
2018,08,22,16,07,26.70
2018,08,22,16,08,26.80
2018,08,22,16,09,26.80
2018,08,22,16,10,26.90
2018,08,22,16,11,26.90
2018,08,22,16,12,26.90
2018,08,22,16,13,26.80
2018,08,22,16,14,26.80
2018,08,22,16,15,26.80
2018,08,22,16,16,26.80
2018,08,22,16,17,26.70
2018,08,22,16,18,26.70
2018,08,22,16,19,26.70
2018,08,22,16,20,26.70
2018,08,22,16,21,26.70
2018,08,22,16,22,26.60
2018,08,22,16,23,26.60
2018,08,22,16,24,26.50
2018,08,22,16,25,26.50
2018,08,22,16,26,26.50
2018,08,22,16,27,26.50
2018,08,22,16,28,26.40
2018,08,22,16,29,26.40
2018,08,22,16,30,26.30
2018,08,22,16,31,26.30
2018,08,22,16,32,26.30
2018,08,22,16,33,26.30
2018,08,22,16,34,26.30
2018,08,22,16,35,26.30
2018,08,22,16,36,26.40
2018,08,22,16,37,26.40
2018,08,22,16,38,26.50
2018,08,22,16,39,26.60
2018,08,22,16,40,26.60
2018,08,22,16,41,26.50
2018,08,22,16,42,26.50
2018,08,22,16,43,26.40
2018,08,22,16,44,26.40
2018,08,22,16,45,26.50
2018,08,22,16,46,26.50
2018,08,22,16,47,26.50
2018,08,22,16,48,26.50
2018,08,22,16,49,26.50
2018,08,22,16,50,26.50
2018,08,22,16,51,26.60
2018,08,22,16,52,26.60
2018,08,22,16,53,26.60
2018,08,22,16,54,26.60
2018,08,22,16,55,26.60
2018,08,22,16,56,26.60
2018,08,22,16,57,26.50
2018,08,22,16,58,26.50
2018,08,22,16,59,26.50
2018,08,22,17,00,26.50
2018,08,22,17,01,26.50
2018,08,22,17,02,26.50
2018,08,22,17,03,26.50
2018,08,22,17,04,26.50
2018,08,22,17,05,26.40
2018,08,22,17,06,26.40
2018,08,22,17,07,26.40
2018,08,22,17,08,26.40
2018,08,22,17,09,26.40
2018,08,22,17,10,26.40
2018,08,22,17,11,26.40
2018,08,22,17,12,26.30
2018,08,22,17,13,26.20
2018,08,22,17,14,26.20
2018,08,22,17,15,26.10
2018,08,22,17,16,26.10
2018,08,22,17,17,26.10
2018,08,22,17,18,26.10
2018,08,22,17,19,26.10